[[{"header":{"parameterUnit":"m.s-1","parameterCategory":1,"la1":30.2991,"la2":30.254,"lo1":-89.0895,"lo2":-89.0444,"dy":0.0017,"dx":0.0017,"nx":28,"ny":28,"refTime":"2023-07-19T03:00:00:Z","depth":0,"parameterNumber":2,"parameterNumberName":"U-component_of_WINDS"},"data":[0,0,0,0,0,0,0,0,0,0,0,0,0,0,0,0,0,0,0,0,0,0,0,0,0,0,0,0,0,0,0,0,0,0,0,0,0,0,0,0,0,0,0,0,0,0,0,0,0,0,0,0,0,0,0,0,0,0,-0.2151,-0.215,0,-0.2051,-0.205,-0.2049,-0.1994,-0.1993,-0.1993,-0.1993,-0.1892,-0.1889,-0.1887,0,0,0,0,0,0,0,0,0,0,0,0,0,-0.2296,-0.2293,-0.2151,-0.215,-0.2149,-0.2052,-0.205,-0.2049,-0.1994,-0.1993,-0.1993,-0.1993,-0.1892,-0.1889,-0.1886,0,0,0,0,0,0,0,0,0,0,0,0,0,-0.2218,-0.2292,-0.2152,-0.211,-0.2105,-0.2052,-0.205,-0.2049,-0.1994,-0.1993,-0.1993,-0.1993,-0.1893,-0.189,-0.1886,-0.1867,0,0,-0.1874,-0.1873,0,0,0,0,0,0,0,0,-0.2223,-0.2213,-0.2117,-0.2112,-0.2107,-0.2035,-0.2064,-0.1988,-0.1994,-0.2036,-0.1993,-0.1993,-0.1939,-0.1932,-0.1914,-0.1863,-0.1858,-0.1874,-0.1872,-0.187,-0.1869,0,0,0,0,0,0,0,-0.2228,-0.2217,-0.2112,-0.2116,-0.211,-0.2096,-0.2085,-0.2049,-0.199,-0.2032,-0.2028,-0.2017,-0.1937,-0.1917,-0.1911,-0.1857,-0.1874,-0.1871,-0.1868,-0.1867,-0.1786,-0.1786,0,0,0,0,0,0,-0.224,-0.2222,-0.2115,-0.2109,-0.2165,-0.2094,-0.2081,-0.2058,-0.1991,-0.198,-0.2017,-0.2015,-0.1924,-0.1915,-0.1907,-0.1881,-0.187,-0.1866,-0.1864,-0.1786,-0.1786,-0.1787,0,0,0,0,0,0,-0.2243,-0.2231,-0.2119,-0.2164,-0.2149,-0.2092,-0.2066,-0.2056,-0.2037,-0.1979,-0.1969,-0.2008,-0.1924,-0.1912,-0.1878,-0.1877,-0.1865,-0.1861,-0.1786,-0.1786,-0.1786,-0.183,0,0,0,0,0,0,-0.2248,-0.2233,-0.2225,-0.2164,-0.2147,-0.2091,-0.2066,-0.2055,-0.2031,-0.2026,-0.1968,-0.1958,-0.1923,-0.1884,-0.1874,-0.1872,-0.1858,-0.1786,-0.1786,-0.1786,-0.1828,-0.1832,-0.1834,0,0,0,0,0,-0.2253,-0.2241,-0.2224,-0.2212,-0.2135,-0.2091,-0.2081,-0.204,-0.2031,-0.2023,-0.1985,-0.196,-0.1879,-0.1881,-0.1869,-0.1866,-0.1786,-0.1786,-0.1786,-0.1827,-0.1831,-0.1834,0,0,0,0,0,0,-0.2302,-0.2232,-0.2213,-0.2181,-0.2143,-0.2082,-0.207,-0.2046,-0.2009,-0.2007,-0.1958,-0.1945,-0.1916,-0.1887,-0.189,-0.1845,-0.183,-0.1828,-0.1864,-0.1868,-0.1871,-0.1878,-0.1855,0,0,0,0,0,-0.231,-0.2279,-0.2219,-0.2197,-0.2178,-0.2128,-0.2107,-0.2079,-0.2037,-0.2021,-0.1981,-0.1942,-0.1908,-0.1886,-0.1851,-0.1824,-0.1811,-0.1816,-0.1819,-0.1822,-0.1821,-0.1805,-0.1807,-0.1788,-0.1788,-0.1788,0,0,-0.2324,-0.2282,-0.2266,-0.2206,-0.2173,-0.2143,-0.2115,-0.2084,-0.2062,-0.2016,-0.1981,-0.1951,-0.1904,-0.1873,-0.1858,-0.1849,-0.1823,-0.1822,-0.1825,-0.1822,-0.1806,-0.1808,-0.1809,-0.1788,-0.1788,-0.1788,0,0,-0.2335,-0.23,-0.2278,-0.2245,-0.2195,-0.2162,-0.2157,-0.21,-0.2078,-0.2042,-0.2008,-0.1981,-0.1922,-0.189,-0.1867,-0.1867,-0.1842,-0.1857,-0.1873,-0.1858,-0.186,-0.1861,-0.1862,-0.1863,-0.1856,-0.1856,-0.1856,0,-0.236,-0.2313,-0.2269,-0.2241,-0.2216,-0.2173,-0.2151,-0.2121,-0.2063,-0.2047,-0.2038,-0.1964,-0.193,-0.1891,-0.1892,-0.1873,-0.1866,-0.1863,-0.1863,-0.1864,-0.1864,-0.1864,-0.1865,-0.1858,-0.1858,-0.1858,-0.1858,0,-0.2346,-0.2314,-0.2302,-0.2247,-0.222,-0.2195,-0.2148,-0.2127,-0.2101,-0.2069,-0.2034,-0.1991,-0.1947,-0.1935,-0.191,-0.1894,-0.189,-0.1872,-0.1856,-0.1869,-0.1868,-0.1868,-0.1861,-0.1861,-0.186,-0.1859,0,0,-0.2385,-0.2306,-0.2303,-0.2277,-0.222,-0.2195,-0.2168,-0.2125,-0.2108,-0.2069,-0.2046,-0.1998,-0.1982,-0.1955,-0.1926,-0.1913,-0.1917,-0.1897,-0.1895,-0.1903,-0.1897,-0.1911,-0.1912,-0.19,-0.19,-0.19,-0.1901,0,-0.2388,-0.2338,-0.2298,-0.2262,-0.2233,-0.2193,-0.2169,-0.2132,-0.2101,-0.2072,-0.2039,-0.2006,-0.1987,-0.197,-0.1956,-0.192,-0.1915,-0.1919,-0.1879,-0.1878,-0.1892,-0.1911,-0.1925,-0.1928,-0.1901,-0.19,-0.19,0,-0.2385,-0.2348,-0.231,-0.2256,-0.2242,-0.2222,-0.218,-0.2152,-0.2109,-0.2088,-0.2059,-0.2028,-0.1999,-0.1986,-0.1945,-0.1948,-0.193,-0.191,-0.1909,-0.1904,-0.189,-0.1907,-0.1928,-0.1929,-0.1899,-0.19,-0.19,0,-0.2419,-0.2359,-0.2329,-0.2308,-0.2244,-0.2231,-0.2204,-0.2161,-0.2138,-0.2101,-0.2086,-0.2046,-0.2025,-0.1995,-0.1956,-0.1949,-0.1919,-0.1902,-0.1901,-0.1902,-0.1897,-0.1898,-0.1916,-0.1884,-0.1884,-0.1884,-0.1884,0,-0.2427,-0.2405,-0.2343,-0.2324,-0.2299,-0.2254,-0.2231,-0.22,-0.2162,-0.2137,-0.21,-0.2077,-0.2026,-0.1998,-0.1966,-0.1938,-0.1928,-0.1911,-0.1903,-0.1914,-0.1917,-0.1901,-0.19,-0.1884,-0.1884,-0.1884,-0.1884,0,-0.246,-0.2417,-0.2382,-0.2324,-0.2309,-0.2293,-0.2244,-0.2225,-0.2193,-0.2162,-0.2152,-0.2101,-0.2066,-0.2023,-0.1974,-0.1953,-0.1928,-0.1915,-0.1942,-0.1938,-0.1939,-0.194,-0.1949,-0.1948,-0.1917,-0.1917,-0.1917,0,-0.2468,-0.2451,-0.2391,-0.2372,-0.2346,-0.2315,-0.2291,-0.2247,-0.2224,-0.2174,-0.2161,-0.2123,-0.209,-0.2036,-0.1995,-0.1957,-0.1944,-0.195,-0.1938,-0.195,-0.1945,-0.1946,-0.1945,-0.1953,-0.1953,-0.1954,-0.1954,0,-0.2488,-0.2468,-0.2435,-0.2395,-0.2368,-0.2334,-0.2299,-0.2285,-0.2233,-0.2209,-0.2173,-0.2147,-0.2098,-0.2061,-0.2018,-0.199,-0.1964,-0.1958,-0.1956,-0.1968,-0.1984,-0.1976,-0.1951,-0.1958,-0.1958,-0.1957,-0.1957,-0.1957,-0.2509,-0.2492,-0.2448,-0.2412,-0.2381,-0.2349,-0.2329,-0.2294,-0.2262,-0.2218,-0.2194,-0.2158,-0.2116,-0.2056,-0.203,-0.2002,-0.1992,-0.1989,-0.1988,-0.1988,-0.1992,-0.1989,-0.1994,-0.1993,-0.1993,-0.1993,-0.1993,0,-0.2527,-0.2497,-0.2465,-0.2417,-0.2389,-0.2367,-0.2327,-0.2305,-0.2274,-0.2237,-0.2206,-0.2165,-0.2129,-0.2085,-0.2046,-0.2032,-0.2019,-0.2024,-0.2024,-0.2019,-0.2002,-0.2008,-0.2035,-0.2035,-0.2035,-0.2035,-0.2035,-0.2035,-0.2534,-0.2503,-0.2478,-0.2432,-0.2402,-0.2367,-0.2346,-0.2317,-0.2287,-0.2242,-0.2212,-0.2184,-0.2144,-0.2103,-0.2069,-0.2057,-0.2045,-0.2053,-0.2038,-0.2023,-0.202,-0.2016,-0.2022,-0.2051,-0.2051,-0.2057,-0.2057,-0.2057]},{"header":{"parameterUnit":"m.s-1","parameterCategory":1,"la1":30.2991,"la2":30.254,"lo1":-89.0895,"lo2":-89.0444,"dy":0.0017,"dx":0.0017,"nx":28,"ny":28,"refTime":"2023-07-19T03:00:00:Z","depth":0,"parameterNumber":3,"parameterNumberName":"V-component_of_WINDS"},"data":[0,0,0,0,0,0,0,0,0,0,0,0,0,0,0,0,0,0,0,0,0,0,0,0,0,0,0,0,0,0,0,0,0,0,0,0,0,0,0,0,0,0,0,0,0,0,0,0,0,0,0,0,0,0,0,0,0,0,4.4655,4.4654,0,4.4597,4.4596,4.4595,4.4527,4.4526,4.4525,4.4524,4.4461,4.4461,4.446,0,0,0,0,0,0,0,0,0,0,0,0,0,4.4705,4.4705,4.4655,4.4654,4.4654,4.4597,4.4596,4.4595,4.4528,4.4526,4.4525,4.4524,4.4462,4.4461,4.446,0,0,0,0,0,0,0,0,0,0,0,0,0,4.4669,4.4704,4.4655,4.4613,4.4609,4.4597,4.4596,4.4595,4.4528,4.4526,4.4525,4.4523,4.4462,4.4461,4.446,4.4484,0,0,4.4457,4.4456,0,0,0,0,0,0,0,0,4.4671,4.4667,4.462,4.4616,4.4611,4.4568,4.4591,4.4558,4.4528,4.4558,4.4524,4.4523,4.4498,4.4494,4.4486,4.4481,4.4478,4.4456,4.4456,4.4455,4.4455,0,0,0,0,0,0,0,4.4674,4.4669,4.4632,4.4619,4.4614,4.4596,4.4589,4.4584,4.4537,4.4556,4.4551,4.4545,4.4495,4.4487,4.4484,4.4477,4.4456,4.4455,4.4455,4.4454,4.4489,4.4491,0,0,0,0,0,0,4.4683,4.4672,4.4634,4.463,4.4638,4.4597,4.4589,4.4583,4.4537,4.4529,4.4546,4.4542,4.449,4.4485,4.4482,4.4507,4.4455,4.4454,4.4454,4.4488,4.449,4.4491,0,0,0,0,0,0,4.4684,4.468,4.4636,4.465,4.4643,4.4597,4.4592,4.4583,4.4575,4.453,4.4521,4.4547,4.4488,4.4483,4.4484,4.4504,4.4454,4.4453,4.4486,4.4488,4.449,4.4558,0,0,0,0,0,0,4.4686,4.4681,4.469,4.465,4.4642,4.4641,4.4593,4.4583,4.4574,4.4568,4.4528,4.452,4.4487,4.4486,4.4483,4.4501,4.4452,4.4484,4.4487,4.449,4.4554,4.4562,4.457,0,0,0,0,0,4.4688,4.4711,4.4691,4.4687,4.4653,4.4642,4.4637,4.4599,4.4576,4.4584,4.4555,4.4522,4.4502,4.4487,4.4483,4.4501,4.4482,4.4486,4.4489,4.455,4.4561,4.4569,0,0,0,0,0,0,4.4753,4.4705,4.4682,4.4693,4.4672,4.4631,4.464,4.4611,4.4596,4.459,4.4543,4.4534,4.4541,4.4521,4.4505,4.4522,4.4487,4.449,4.4535,4.4544,4.4552,4.4557,4.4451,0,0,0,0,0,4.4769,4.4765,4.4722,4.4736,4.4727,4.4686,4.4679,4.4652,4.4628,4.4618,4.4589,4.4567,4.4555,4.4549,4.4536,4.4551,4.4541,4.4561,4.4569,4.4576,4.4579,4.4585,4.4594,4.4503,4.4503,4.4503,0,0,4.4801,4.4774,4.4774,4.4748,4.4729,4.4725,4.4679,4.4676,4.4673,4.4617,4.4617,4.4595,4.4567,4.4575,4.4577,4.4558,4.4602,4.458,4.4586,4.4585,4.459,4.4598,4.4606,4.4505,4.4505,4.4504,0,0,4.4858,4.4837,4.4846,4.4828,4.48,4.4773,4.4775,4.4738,4.4722,4.4721,4.4679,4.4674,4.4655,4.4637,4.4625,4.4676,4.4644,4.4673,4.4714,4.4721,4.4728,4.4734,4.4752,4.4759,4.4676,4.4676,4.4676,0,4.4901,4.4894,4.4855,4.4855,4.4845,4.4796,4.4805,4.4789,4.4758,4.4751,4.4731,4.4708,4.4685,4.4688,4.4701,4.4693,4.4693,4.4677,4.4731,4.4736,4.4741,4.4758,4.4765,4.468,4.4679,4.4679,4.4679,0,4.4949,4.4945,4.4956,4.4928,4.4919,4.4924,4.4884,4.488,4.4853,4.4828,4.4827,4.4799,4.4779,4.4778,4.4751,4.4777,4.4767,4.474,4.4704,4.4754,4.4769,4.4775,4.4685,4.4684,4.4683,4.4682,0,0,4.5044,4.4995,4.5,4.4987,4.4953,4.4948,4.4951,4.4933,4.493,4.491,4.4911,4.4897,4.4871,4.4858,4.4829,4.4835,4.4877,4.4807,4.4805,4.4821,4.4904,4.4925,4.4933,4.4857,4.4858,4.4858,4.4906,0,4.5094,4.5097,4.5061,4.5073,4.5069,4.5023,4.5025,4.5004,4.498,4.4973,4.4946,4.4937,4.4904,4.4896,4.49,4.4872,4.4893,4.4868,4.4856,4.4856,4.4864,4.4941,4.4962,4.5009,4.4912,4.4913,4.4914,0,4.5153,4.5138,4.515,4.5116,4.5113,4.5115,4.5096,4.509,4.5065,4.5047,4.5033,4.5001,4.5,4.4967,4.4964,4.4948,4.4941,4.4926,4.4927,4.4924,4.4888,4.4939,4.5023,4.503,4.4922,4.4922,4.4921,0,4.5222,4.5204,4.5209,4.5199,4.5159,4.5162,4.5146,4.5119,4.5111,4.5094,4.5088,4.5071,4.5062,4.5049,4.5013,4.4992,4.5015,4.4978,4.4999,4.5,4.5006,4.5006,4.5089,4.5002,4.5002,4.5002,4.5002,0,4.5281,4.529,4.5239,4.5242,4.5251,4.521,4.5219,4.5198,4.5175,4.5172,4.5131,4.5129,4.5082,4.5074,4.5046,4.5048,4.5044,4.5029,4.5022,4.5033,4.5035,4.5027,4.5023,4.5004,4.5003,4.5003,4.5003,0,4.5359,4.5325,4.5327,4.529,4.5281,4.5289,4.5256,4.5257,4.5231,4.5229,4.5225,4.5185,4.5174,4.5137,4.5117,4.5097,4.5109,4.5094,4.5118,4.5113,4.5136,4.5134,4.5217,4.5226,4.5134,4.5135,4.5135,0,4.5399,4.5405,4.5368,4.5364,4.535,4.5344,4.5336,4.5296,4.5289,4.5261,4.5265,4.5252,4.5239,4.5224,4.5192,4.5176,4.516,4.519,4.5157,4.5169,4.516,4.516,4.5161,4.5197,4.5199,4.52,4.52,0,4.5473,4.5457,4.5447,4.5432,4.5424,4.5409,4.5393,4.5391,4.5347,4.5341,4.533,4.532,4.5301,4.5287,4.5267,4.5248,4.5217,4.5211,4.5215,4.5227,4.524,4.5233,4.5137,4.5209,4.5208,4.5208,4.5207,4.5207,4.5533,4.5536,4.5512,4.5502,4.5486,4.5472,4.5471,4.5446,4.5436,4.5418,4.5395,4.5387,4.5362,4.5331,4.5315,4.5308,4.5291,4.5297,4.5298,4.53,4.5305,4.5242,4.5304,4.5304,4.5303,4.5303,4.5303,0,4.5606,4.5588,4.558,4.5558,4.5551,4.5524,4.5504,4.5499,4.5493,4.5473,4.5462,4.5449,4.5437,4.5404,4.5388,4.5389,4.5374,4.5386,4.5385,4.5381,4.5322,4.532,4.5398,4.5398,4.5398,4.5398,4.5398,4.5398,4.5643,4.5647,4.5628,4.5623,4.5605,4.5598,4.5589,4.5575,4.5559,4.5548,4.5538,4.5517,4.5492,4.5474,4.5461,4.5451,4.5447,4.5464,4.545,4.5395,4.5386,4.5377,4.5375,4.5463,4.5463,4.551,4.551,4.551]}]]